[[{"header":{"parameterUnit":"m.s-1","parameterCategory":1,"la1":30.2991,"la2":30.254,"lo1":-89.0895,"lo2":-89.0444,"dy":0.0017,"dx":0.0017,"nx":28,"ny":28,"refTime":"2024-03-22T21:00:00:Z","depth":0,"parameterNumber":2,"parameterNumberName":"U-component_of_WINDS"},"data":[0,0,0,0,0,0,0,0,0,0,0,0,0,0,0,0,0,0,0,0,0,0,0,0,0,0,0,0,0,0,0,0,0,0,0,0,0,0,0,0,0,0,0,0,0,0,0,0,0,0,0,0,0,0,0,0,0,0,-0.9921,-0.9922,0,-1.0044,-1.0045,-1.0046,-1.0098,-1.0097,-1.0097,-1.0097,-1.0228,-1.0231,-1.0235,0,0,0,0,0,0,0,0,0,0,0,0,0,-0.9734,-0.9737,-0.9921,-0.9922,-0.9924,-1.0043,-1.0045,-1.0047,-1.0098,-1.0097,-1.0097,-1.0097,-1.0226,-1.0231,-1.0235,0,0,0,0,0,0,0,0,0,0,0,0,0,-0.9832,-0.9738,-0.992,-0.9963,-0.9968,-1.0043,-1.0045,-1.0047,-1.0098,-1.0097,-1.0097,-1.0096,-1.0225,-1.023,-1.0236,-1.0279,0,0,-1.0253,-1.0255,0,0,0,0,0,0,0,0,-0.9826,-0.9839,-0.9955,-0.996,-0.9966,-1.0055,-1.0027,-1.0125,-1.0098,-1.0049,-1.0097,-1.0096,-1.0171,-1.0181,-1.0205,-1.0285,-1.029,-1.0254,-1.0257,-1.0259,-1.0261,0,0,0,0,0,0,0,-0.9819,-0.9834,-0.9969,-0.9957,-0.9964,-0.9978,-0.9991,-1.0046,-1.0111,-1.0053,-1.0057,-1.0071,-1.0174,-1.0199,-1.0208,-1.0292,-1.0253,-1.0258,-1.0262,-1.0264,-1.0413,-1.0414,0,0,0,0,0,0,-0.9805,-0.9828,-0.9966,-0.9973,-0.9894,-0.9981,-0.9997,-1.0027,-1.011,-1.0122,-1.0071,-1.0072,-1.019,-1.0202,-1.0213,-1.0269,-1.0259,-1.0265,-1.0268,-1.0412,-1.0413,-1.0414,0,0,0,0,0,0,-0.98,-0.9817,-0.9961,-0.9901,-0.9921,-0.9985,-1.0019,-1.0029,-1.0055,-1.0124,-1.0136,-1.0085,-1.019,-1.0205,-1.0262,-1.0274,-1.0267,-1.0272,-1.0412,-1.0413,-1.0414,-1.038,0,0,0,0,0,0,-0.9795,-0.9815,-0.9831,-0.9901,-0.9924,-1.0006,-1.0019,-1.0032,-1.0064,-1.0068,-1.014,-1.0152,-1.0191,-1.0253,-1.0267,-1.0281,-1.0277,-1.0411,-1.0412,-1.0413,-1.038,-1.0379,-1.0378,0,0,0,0,0,-0.9788,-0.9818,-0.9831,-0.9848,-0.9945,-1.0006,-1.0019,-1.0062,-1.0065,-1.0082,-1.0126,-1.0149,-1.027,-1.0258,-1.0275,-1.0291,-1.041,-1.0412,-1.0413,-1.038,-1.0379,-1.0379,0,0,0,0,0,0,-0.9749,-0.9828,-0.9844,-0.9897,-0.9944,-1.0015,-1.0038,-1.006,-1.0109,-1.0111,-1.0164,-1.018,-1.0231,-1.0267,-1.0252,-1.0336,-1.0342,-1.0347,-1.0311,-1.0311,-1.031,-1.0301,-1.0281,0,0,0,0,0,-0.9746,-0.9788,-0.9855,-0.9895,-0.9918,-0.9973,-1.0002,-1.003,-1.0083,-1.0104,-1.0152,-1.0202,-1.0252,-1.0283,-1.0333,-1.0385,-1.0402,-1.0404,-1.0403,-1.0402,-1.0406,-1.0437,-1.0439,-1.0418,-1.0418,-1.0418,0,0,-0.9741,-0.9789,-0.9813,-0.9888,-0.9929,-0.9972,-0.999,-1.0035,-1.0068,-1.0111,-1.0167,-1.0203,-1.0264,-1.0318,-1.0344,-1.0349,-1.0415,-1.0404,-1.0403,-1.0408,-1.0438,-1.044,-1.0442,-1.0419,-1.0419,-1.0419,0,0,-0.9755,-0.9795,-0.9833,-0.9872,-0.9932,-0.9968,-0.9977,-1.0044,-1.0069,-1.0125,-1.0158,-1.0199,-1.0283,-1.0324,-1.0356,-1.0383,-1.0407,-1.0398,-1.0395,-1.0424,-1.0426,-1.0427,-1.0438,-1.0441,-1.0401,-1.0401,-1.0401,0,-0.9742,-0.9807,-0.985,-0.9893,-0.9925,-0.9963,-1.0002,-1.0039,-1.0112,-1.0134,-1.0138,-1.0243,-1.0287,-1.0351,-1.0358,-1.0382,-1.0395,-1.0391,-1.0422,-1.0424,-1.0426,-1.0437,-1.044,-1.04,-1.04,-1.04,-1.04,0,-0.9789,-0.9833,-0.9857,-0.9924,-0.9959,-1.0,-1.005,-1.008,-1.0105,-1.0142,-1.0199,-1.0252,-1.0312,-1.0329,-1.0355,-1.0397,-1.0398,-1.0411,-1.0418,-1.0426,-1.0437,-1.0441,-1.0398,-1.0398,-1.0399,-1.0399,0,0,-0.9784,-0.9872,-0.988,-0.9911,-0.9978,-1.0014,-1.0057,-1.0114,-1.0139,-1.0188,-1.0226,-1.0295,-1.0307,-1.0343,-1.0374,-1.0399,-1.0418,-1.0409,-1.0411,-1.0409,-1.0468,-1.0458,-1.0462,-1.0433,-1.0434,-1.0435,-1.0463,0,-0.9807,-0.9883,-0.9922,-0.9982,-1.0023,-1.0059,-1.0096,-1.0142,-1.0177,-1.0219,-1.0258,-1.0306,-1.0318,-1.034,-1.0366,-1.041,-1.043,-1.0408,-1.047,-1.0472,-1.0455,-1.0468,-1.0458,-1.0482,-1.0467,-1.0468,-1.0469,0,-0.9845,-0.9891,-0.9954,-1.0016,-1.0035,-1.0067,-1.0122,-1.0161,-1.0214,-1.0238,-1.0277,-1.0307,-1.0354,-1.0356,-1.0423,-1.0407,-1.0435,-1.0459,-1.0462,-1.047,-1.0471,-1.0477,-1.0491,-1.0494,-1.0475,-1.0475,-1.0474,0,-0.9835,-0.9913,-0.9961,-0.9986,-1.0059,-1.0081,-1.0113,-1.0165,-1.0196,-1.0245,-1.0266,-1.032,-1.035,-1.0391,-1.0435,-1.0433,-1.0498,-1.0504,-1.052,-1.0519,-1.0533,-1.0532,-1.0552,-1.0549,-1.0549,-1.0549,-1.0549,0,-0.9858,-0.9896,-0.9957,-0.9987,-1.003,-1.0074,-1.0116,-1.0151,-1.0197,-1.0235,-1.027,-1.0305,-1.036,-1.0403,-1.0438,-1.0487,-1.0501,-1.0522,-1.0531,-1.052,-1.0517,-1.0539,-1.0539,-1.055,-1.055,-1.055,-1.0549,0,-0.9856,-0.9898,-0.9953,-1.0016,-1.0033,-1.0062,-1.0117,-1.0148,-1.0183,-1.023,-1.0244,-1.0301,-1.0352,-1.0399,-1.0469,-1.0492,-1.0543,-1.0554,-1.0525,-1.053,-1.0543,-1.0542,-1.058,-1.0587,-1.0578,-1.0578,-1.0578,0,-0.9868,-0.9898,-0.9963,-0.9989,-1.002,-1.0062,-1.0094,-1.0138,-1.017,-1.0231,-1.0255,-1.0308,-1.0354,-1.0434,-1.0483,-1.0536,-1.0549,-1.0559,-1.0558,-1.0545,-1.055,-1.0548,-1.0552,-1.0559,-1.0558,-1.0558,-1.0558,0,-0.9886,-0.9905,-0.9948,-0.9997,-1.0033,-1.0075,-1.0118,-1.0139,-1.0191,-1.0225,-1.0277,-1.0312,-1.0381,-1.0434,-1.0492,-1.0527,-1.0552,-1.0558,-1.0564,-1.0554,-1.0535,-1.0546,-1.0524,-1.0557,-1.0557,-1.0557,-1.0557,-1.0557,-0.9893,-0.992,-0.9969,-1.0016,-1.0052,-1.0091,-1.0122,-1.016,-1.0203,-1.0262,-1.0285,-1.0338,-1.039,-1.047,-1.0504,-1.0547,-1.0553,-1.0562,-1.0565,-1.0567,-1.0565,-1.0527,-1.0558,-1.0558,-1.0558,-1.0558,-1.0559,0,-0.9913,-0.9945,-0.9987,-1.0045,-1.0081,-1.0098,-1.0147,-1.0177,-1.0222,-1.0267,-1.0309,-1.0369,-1.042,-1.0471,-1.0525,-1.055,-1.0563,-1.0563,-1.0562,-1.057,-1.0557,-1.0546,-1.0551,-1.0551,-1.0551,-1.0551,-1.0551,-1.0551,-0.9928,-0.9974,-0.9999,-1.0064,-1.0097,-1.0147,-1.0173,-1.021,-1.0246,-1.0309,-1.0351,-1.0383,-1.0431,-1.0489,-1.0537,-1.055,-1.0569,-1.0566,-1.0584,-1.0571,-1.0571,-1.0571,-1.0561,-1.057,-1.057,-1.0593,-1.0593,-1.0594]},{"header":{"parameterUnit":"m.s-1","parameterCategory":1,"la1":30.2991,"la2":30.254,"lo1":-89.0895,"lo2":-89.0444,"dy":0.0017,"dx":0.0017,"nx":28,"ny":28,"refTime":"2024-03-22T21:00:00:Z","depth":0,"parameterNumber":3,"parameterNumberName":"V-component_of_WINDS"},"data":[0,0,0,0,0,0,0,0,0,0,0,0,0,0,0,0,0,0,0,0,0,0,0,0,0,0,0,0,0,0,0,0,0,0,0,0,0,0,0,0,0,0,0,0,0,0,0,0,0,0,0,0,0,0,0,0,0,0,3.7676,3.7675,0,3.7535,3.7533,3.7532,3.753,3.7532,3.7534,3.7535,3.738,3.7374,3.7368,0,0,0,0,0,0,0,0,0,0,0,0,0,3.7935,3.793,3.7676,3.7675,3.7673,3.7535,3.7533,3.7531,3.753,3.7532,3.7534,3.7536,3.7382,3.7375,3.7368,0,0,0,0,0,0,0,0,0,0,0,0,0,3.7811,3.7929,3.7677,3.7656,3.7652,3.7536,3.7533,3.7531,3.7529,3.7532,3.7535,3.7537,3.7384,3.7375,3.7367,3.7258,0,0,3.734,3.7336,0,0,0,0,0,0,0,0,3.7818,3.7801,3.7661,3.7657,3.7653,3.7553,3.7568,3.7439,3.7529,3.7576,3.7535,3.7539,3.7435,3.7422,3.7389,3.7251,3.7244,3.7339,3.7334,3.733,3.7328,0,0,0,0,0,0,0,3.7826,3.7807,3.762,3.7658,3.7654,3.765,3.7636,3.7543,3.7491,3.7572,3.7571,3.7555,3.7433,3.7397,3.7385,3.7242,3.734,3.7332,3.7326,3.7323,3.7009,3.7006,0,0,0,0,0,0,3.7841,3.7814,3.7625,3.7616,3.7744,3.7643,3.7627,3.7582,3.7492,3.7481,3.7553,3.7556,3.7411,3.7396,3.738,3.7247,3.733,3.7322,3.7317,3.7012,3.7008,3.7005,0,0,0,0,0,0,3.7846,3.7824,3.763,3.7715,3.769,3.7636,3.7586,3.7578,3.7543,3.7478,3.7468,3.7527,3.7413,3.7392,3.7289,3.7242,3.7318,3.731,3.7015,3.701,3.7006,3.6981,0,0,0,0,0,0,3.7854,3.7826,3.7786,3.7714,3.7686,3.7545,3.7583,3.7573,3.7529,3.7531,3.7451,3.744,3.7413,3.7303,3.7281,3.7231,3.7303,3.7019,3.7013,3.7008,3.6986,3.6976,3.6968,0,0,0,0,0,3.7863,3.7782,3.7784,3.7761,3.7635,3.7542,3.7525,3.7499,3.7525,3.7483,3.7442,3.7443,3.7251,3.7292,3.7267,3.7215,3.7022,3.7015,3.7008,3.699,3.6978,3.6968,0,0,0,0,0,0,3.7844,3.7772,3.7773,3.7667,3.7612,3.7542,3.7488,3.7487,3.742,3.7424,3.7391,3.7373,3.7271,3.7232,3.7279,3.7105,3.7139,3.7127,3.7134,3.7122,3.7113,3.7124,3.7296,0,0,0,0,0,3.7829,3.7763,3.7701,3.7614,3.7586,3.7542,3.7501,3.7486,3.7425,3.74,3.7351,3.7289,3.7215,3.7167,3.7095,3.6981,3.6963,3.6933,3.6924,3.6917,3.6906,3.6843,3.6829,3.6982,3.6982,3.6982,0,0,3.7794,3.7746,3.7706,3.7609,3.7564,3.7493,3.7522,3.7445,3.7392,3.7387,3.7288,3.7251,3.7179,3.7071,3.7021,3.7036,3.686,3.6908,3.6903,3.6895,3.6835,3.682,3.6808,3.6977,3.6978,3.6979,0,0,3.7695,3.7653,3.7576,3.7532,3.7465,3.7437,3.7419,3.735,3.7326,3.7227,3.7223,3.7157,3.703,3.698,3.6938,3.6823,3.6821,3.68,3.6752,3.6692,3.668,3.6669,3.6628,3.6614,3.679,3.679,3.679,0,3.7659,3.7557,3.7535,3.746,3.7417,3.7415,3.7335,3.7291,3.7202,3.7172,3.7191,3.7034,3.6985,3.6865,3.6838,3.6804,3.678,3.6808,3.6684,3.6673,3.6663,3.6623,3.6608,3.6788,3.6788,3.6789,3.6789,0,3.7516,3.7444,3.739,3.731,3.726,3.7183,3.7148,3.71,3.709,3.7059,3.6959,3.6901,3.6819,3.6789,3.6776,3.6668,3.668,3.6692,3.6725,3.6646,3.6609,3.6593,3.6785,3.6786,3.6787,3.6787,0,0,3.7398,3.7311,3.7291,3.7255,3.7183,3.7125,3.7048,3.6971,3.693,3.687,3.6802,3.6697,3.6709,3.6661,3.6643,3.659,3.6504,3.6609,3.6607,3.6591,3.638,3.6371,3.6354,3.6503,3.65,3.6497,3.6386,0,3.7292,3.7158,3.7138,3.7018,3.6952,3.6949,3.6881,3.6828,3.6798,3.6734,3.6699,3.6625,3.6647,3.6618,3.6566,3.6525,3.6461,3.6533,3.6437,3.6434,3.6455,3.6334,3.6323,3.6221,3.6371,3.6369,3.6367,0,3.7148,3.7089,3.6965,3.6904,3.6875,3.6815,3.6743,3.6684,3.6623,3.6604,3.6553,3.6542,3.6459,3.6498,3.6383,3.6433,3.6392,3.6367,3.6362,3.6351,3.6395,3.6319,3.6187,3.6172,3.6343,3.6345,3.6347,0,3.7075,3.6964,3.6876,3.6845,3.6771,3.6729,3.6695,3.6638,3.6594,3.653,3.6501,3.6428,3.6387,3.6329,3.6298,3.6329,3.6185,3.6221,3.6165,3.6166,3.6133,3.6135,3.5993,3.6109,3.6109,3.6109,3.611,0,3.6958,3.6881,3.6843,3.6788,3.6702,3.6679,3.6593,3.656,3.651,3.6447,3.6439,3.6379,3.6343,3.6277,3.6252,3.616,3.6141,3.6122,3.6116,3.6123,3.6125,3.6095,3.6101,3.6105,3.6106,3.6107,3.6108,0,3.6861,3.6832,3.6736,3.6675,3.6658,3.6598,3.6544,3.649,3.6462,3.6382,3.6362,3.6315,3.6238,3.6202,3.6105,3.6088,3.5984,3.5983,3.6006,3.6003,3.595,3.5955,3.5782,3.5758,3.5891,3.5889,3.5888,0,3.6787,3.6729,3.6664,3.6624,3.6591,3.6525,3.6481,3.6456,3.641,3.6338,3.6292,3.6216,3.6153,3.6029,3.5985,3.5911,3.5908,3.5852,3.5896,3.5905,3.5906,3.591,3.5904,3.5843,3.5842,3.5841,3.584,0,3.6659,3.6649,3.6588,3.6523,3.6472,3.6418,3.6365,3.6331,3.6297,3.6246,3.617,3.6121,3.6025,3.5949,3.5873,3.5835,3.5831,3.5828,3.5811,3.5816,3.5831,3.5822,3.5983,3.5831,3.5832,3.5832,3.5833,3.5833,3.6571,3.652,3.6468,3.6401,3.6359,3.6311,3.6258,3.6224,3.6161,3.6083,3.6072,3.599,3.5931,3.5829,3.5789,3.5723,3.5735,3.5711,3.5704,3.5699,3.5696,3.5843,3.5709,3.5709,3.5709,3.5709,3.5709,0,3.6443,3.641,3.6349,3.6278,3.6225,3.6231,3.6173,3.6127,3.6056,3.6004,3.5944,3.5856,3.5783,3.5734,3.5659,3.5616,3.5612,3.5597,3.5599,3.559,3.5689,3.5711,3.5601,3.5601,3.5601,3.5601,3.5601,3.5601,3.637,3.6285,3.6268,3.6162,3.6128,3.6051,3.6018,3.5972,3.5931,3.5834,3.5775,3.5745,3.5694,3.5616,3.5548,3.5536,3.5508,3.5492,3.548,3.5572,3.5583,3.5594,3.5615,3.5487,3.5486,3.5387,3.5386,3.5385]}]]